Location: Castifao
(42.5040°N, 9.1124°E)
Time: 05:03:51
(UTC+00:00)

ATLAS CENTAUR R/B - Pass Details

Date: 23 January 2020
Orbit: 458 x 690 km, 64.6° (Epoch: 06 February)

Event Time Altitude Azimuth Distance (km) Brightness Sun altitude
Rises 19:01:10 0° 323° (NW) 2,724 5.3 -28.6°
Reaches altitude 10° 19:03:27 10° 321° (NW) 1,787 4.3 -29.0°
Enters shadow 19:04:46 20° 317° (NW) 1,267 3.5 -29.3°
